NOAA 16 DEB, 41249

Orbit data source: Space-Track

NOAA 16 DEB, 41249 is space debris in SSO originally from a launch on Thu, 21 Sep 2000 UTC launched from the Air Force Western Test Range (AFWTR). Debris objects in space refer to the collection of defunct objects orbiting the Earth. Examples of debris include non-operational satellites, rocket bodies, and fragments generated from explosions, collisions, or faulty payload assembly.

Loading next visibility...
Identifier
41249, 2000-055EZ
Orbit
SSO
Country
Flag of USUS
Related business
Manufacturer
Unknown
Mission
Spacecraft
Bus & Motor
Unknown
Mass
Unknown
Launch date (UTC)
2000-09-21 (25 years ago)
Launch vehicle
Unknown
Launch site
Air Force Western Test Range (AFWTR)
Object type
Payload
Rocket body
Debris
Shape & HBR
Unknown
Radar Cross Section
Small (<0.1 m²)

Expand to show TLE details & history
Last TLE update: 1 day ago

TLE from 1 day ago
0 NOAA 16 DEB
1 41249U 00055EZ  25259.79436787  .00008605  00000-0  20359-2 0  9994
2 41249  98.9707 106.3342 0032643 137.7210 222.6509 14.54028050505982
Epoch: 2025-09-16T19:03Z
TLE epoch observation values (Epoch: 2025-09-16T19:03:53.383Z)
Latitude
-0.0001°
Longitude
-175.61777°
Altitude
732.537 km
Speed
7.48 km/s
True Right ascension
07h 05m 20s
True Declination
0° 00' 00"
Sunlit
Object was in daylight at epoch
Visualization orbit readout
Latitude
Unknown
Longitude
Unknown
Altitude
Unknown
Speed
Unknown
Apparent Right ascension
Unknown
Apparent Declination
Unknown
Sunlit
N/A
Visualization observer readout
Local Sidereal Time
14:11:02
Azimuth
Unknown
Elevation
Unknown
Doppler factor
Unknown
Orbital elements
Apogee altitude
732.786 km
Perigee altitude
686.512 km
Semi-major axis
7,087.786 km
Eccentricity
0.00326
Inclination
98.9707°
RAAN
106.3342°
Arg. of periapsis
137.721°
True anomaly
222.39822°
Mean anomaly
222.6509°
Eccentric anomaly
222.52449°
Mean motion
3.63728 °/min
Orbital period
98.97 mins
BSTAR
0.0020359
Loading maneuver chart data...
Computing Atmospheric mass density...
Loading historical data...
Loading historical data...
Loading historical data...
Loading historical data...
Loading historical data...
Loading historical data...
Loading historical data...

Documentation

Showing up to 5 results
|